Location: Spruce Knob
(38.6995°N, 79.5330°W)
Time: 19:45:28
(UTC-04:00)

A-11 Canister half - Pass Details

Date: 02 February 2022
Orbit: 1513 x 1686 km, 47.2° (Epoch: 26 May)

Event Time Altitude Azimuth Distance (km) Brightness Sun altitude
Rises 15:03:11 0° 242° (WSW) 4,840 12.7 24.3°
Reaches altitude 10° 15:06:21 10° 243° (WSW) 3,832 12.5 23.9°
Maximum altitude 15:16:07 82° 331° (NNW) 1,588 9.5 22.6°
Drops below altitude 10° 15:25:33 10° 60° (ENE) 3,710 10.5 21.4°
Sets 15:28:34 0° 61° (ENE) 4,680 11.0 20.9°
